Regional Weather Roundup
Issued by NWS Little Rock, AR

Home | Current Version | Previous Version | Graphics & Text | Print | Product List | Glossary On
Versions: 1 2 3 4 5 6 7 8 9 10 11 12 13 14 15 16 17 18 19 20 21 22 23 24 25 26 27 28 29 30 31 32 33 34 35 36 37 38 39 40 41 42 43 44 45 46 47 48 49
000
ASUS44 KLZK 031405
RWRLZK

WEATHER ROUNDUP FOR ARKANSAS
NATIONAL WEATHER SERVICE LITTLE ROCK AR
900 AM CDT MON AUG 03 2015

NOTE: "FAIR" INDICATES FEW OR NO CLOUDS BELOW 12,000 FEET WITH NO
SIGNIFICANT WEATHER AND/OR OBSTRUCTIONS TO VISIBILITY.

ARZ001-003-010-029-031500-
NORTHWEST ARKANSAS

CITY           SKY/WX    TMP DP  RH WIND       PRES   REMARKS
FAYETTEVILLE   SUNNY     75  69  81 S3        30.00R
FORT SMITH     MOSUNNY   78  69  73 NE5       29.95S
HARRISON       SUNNY     81  66  60 SW3       29.99S
BENTONVILLE    SUNNY     79  64  61 SW6       30.00R
ROGERS         SUNNY     81  68  64 S5        30.01R
SILOAM SPGS    MOSUNNY   79  64  61 S5        29.98S
HIGHFILL       SUNNY     77  69  76 S5        29.99R
SPRINGDALE     MOSUNNY   77  66  69 S3        30.02R
$$

ARZ004-005-016-031500-
NORTH CENTRAL ARKANSAS

CITY           SKY/WX    TMP DP  RH WIND       PRES   REMARKS
BATESVILLE     SUNNY     82  68  61 W5        29.95R HX  85
FLIPPIN        SUNNY     79  66  65 CALM      29.95R
MTN HOME       SUNNY     78  70  76 CALM      29.97R
$$

ARZ040-041-031500-
WEST CENTRAL ARKANSAS

CITY           SKY/WX    TMP DP  RH WIND       PRES   REMARKS
MENA           NOT AVBL
MOUNT IDA      MOSUNNY   77  65  66 CALM      29.96R
$$

ARZ009-017-025-026-028-031500-
NORTHEAST ARKANSAS

CITY           SKY/WX    TMP DP  RH WIND       PRES   REMARKS
JONESBORO      SUNNY     83  70  64 W7        29.93R HX  87
NEWPORT        SUNNY     86  69  56 W5        29.95R HX  90
WALNUT RIDGE   SUNNY     82  68  61 W3        29.94R HX  85
BLYTHEVILLE    SUNNY     83  74  74 SW5       29.93R HX  89
$$

ARZ022-023-033-042-044-031500-
CENTRAL ARKANSAS

CITY           SKY/WX    TMP DP  RH WIND       PRES   REMARKS
LITTLE ROCK    PTSUNNY   84  68  58 SW3       29.95R HX  87
N LITTLE ROCK  PTSUNNY   87  67  50 W5        29.95R HX  89
JACKSONVILLE   SUNNY     85  66  53 W3        29.94R HX  87
SEARCY         MOSUNNY   84  72  67 CALM      29.96R HX  89
HOT SPRINGS    MOSUNNY   80  66  62 VRB3      29.96S
RUSSELLVILLE   MOSUNNY   80  67  64 CALM      29.95R
CLINTON        FAIR      77  70  78 CALM      29.98R
$$

ARZ036-031500-
EAST ARKANSAS

CITY           SKY/WX    TMP DP  RH WIND       PRES   REMARKS
WEST MEMPHIS   SUNNY     79  76  90 S3        29.94R
$$

ARZ050-053-066-070-073-031500-
SOUTHWEST ARKANSAS

CITY           SKY/WX    TMP DP  RH WIND       PRES   REMARKS
ARKADELPHIA    FAIR      82  71  69 CALM      29.96R HX  86
CAMDEN         SUNNY     81  68  65 CALM      29.95R
TEXARKANA      SUNNY     85  65  51 S7        29.95R HX  86
EL DORADO      SUNNY     82  67  60 CALM      29.95R
DE QUEEN       SUNNY     79  68  69 E3        29.94R
$$

ARZ056-057-069-031500-
SOUTHEAST ARKANSAS

CITY           SKY/WX    TMP DP  RH WIND       PRES   REMARKS
PINE BLUFF     SUNNY     83  70  64 S5        29.95R HX  87
STUTTGART      SUNNY     82  70  65 MISG      29.95R HX  86
MONTICELLO     SUNNY     84  70  62 CALM      29.95R HX  88

$$




USA.gov is the U.S. government's official web portal to all federal, state and local government web resources and services.